Location: Newark
(45.4422°N, 16.2769°E)
Time: 06:28:56
(UTC+00:00)

Courier 1B - Pass Details

Date: 15 December 2019
Orbit: 962 x 1209 km, 28.3° (Epoch: 27 January)

Event Time Altitude Azimuth Distance (km) Brightness Sun altitude
Rises 21:09:45 0° 247° (WSW) 3,892 - -59.9°
Reaches altitude 10° 21:13:24 10° 229° (SW) 2,982 - -60.4°
Maximum altitude 21:18:09 18° 189° (S) 2,460 - -61.0°
Drops below altitude 10° 21:23:03 10° 149° (SSE) 3,084 - -61.7°
Sets 21:26:55 0° 132° (SE) 4,075 - -62.2°
